Weather observations for the past three days for
Point Hope, Point Hope Airport
| Date | Time (akdt) | Wind (mph) | Vis. (mi.) | Weather | Sky Cond. | Temperature (ºF) | Relative Humidity | Wind Chill (°F) | Heat Index (°F) | Pressure | Precipitation (in) | ||||||
|---|---|---|---|---|---|---|---|---|---|---|---|---|---|---|---|---|---|
| Air | Dwpt | 6 hour | altimeter (in) | sea level (mb) | 1 hr | 3 hr | 6 hr | ||||||||||
| Max. | Min. | ||||||||||||||||
| 05 | 15:56 | W 7 | 10.00 | Overcast | OVC007 | 21 | 16 | 21.9 | 17.1 | 81% | 13 | 29.96 | 1014.4 | ||||
| 05 | 14:56 | NW 7 | 10.00 | Overcast | OVC005 | 19.9 | 16 | 85% | 12 | 29.96 | 1014.5 | ||||||
| 05 | 13:56 | W 9 | 10.00 | Overcast | OVC003 | 19 | 16 | 88% | 9 | 29.96 | 1014.3 | ||||||
| 05 | 12:56 | W 9 | 10.00 | Overcast | OVC003 | 18 | 16 | 92% | 8 | 29.96 | 0.0 | ||||||
| 05 | 11:56 | W 7 | 10.00 | Overcast | OVC003 | 18 | 16 | 92% | 10 | 29.96 | 0.0 | ||||||
| 05 | 10:56 | W 5 | 10.00 | Overcast | OVC003 | 18 | 16 | 92% | 12 | 29.96 | 0.0 | ||||||
| 05 | 09:56 | W 7 | 10.00 | Overcast | OVC005 | 18 | 16 | 18 | 16 | 92% | 10 | 29.96 | 0.0 | ||||
| 05 | 08:56 | NW 5 | 10.00 | Overcast | OVC005 | 18 | 16 | 92% | 12 | 29.96 | 0.0 | ||||||
| 05 | 07:56 | NW 6 | 5.00 | Fog/Mist | OVC003 | 17.1 | 15.1 | 92% | 10 | 29.96 | 0.0 | ||||||
| 05 | 06:56 | W 6 | 0.25 | Freezing Fog | OVC003 | 16 | 14 | 92% | 8 | 29.96 | 0.0 | ||||||
| 05 | 05:56 | NW 5 | 0.75 | Fog/Mist | OVC003 | 16 | 14 | 92% | 10 | 29.96 | 0.0 | ||||||
| 05 | 04:56 | NW 6 | 9.00 | Overcast | OVC003 | 18 | 16 | 92% | 11 | 29.96 | 0.0 | ||||||
| 05 | 03:56 | W 5 | 10.00 | Overcast | OVC005 | 18 | 16 | 92% | 12 | 29.97 | 0.0 | ||||||
| 05 | 02:56 | W 7 | 10.00 | Overcast | OVC005 | 19 | 17.1 | 92% | 11 | 29.98 | 0.0 | ||||||
| 05 | 01:56 | NW 6 | 10.00 | Overcast | OVC005 | 19.9 | 17.1 | 89% | 13 | 29.99 | 0.0 | ||||||
| 05 | 00:56 | NW 3 | 10.00 | Overcast | OVC005 | 0 | 0 | 0% | 30 | 0.0 | |||||||
| 04 | 23:56 | W 5 | 10.00 | Overcast | OVC005 | 0 | 0 | 0% | 30 | 0.0 | |||||||
| 04 | 22:56 | W 10 | 10.00 | Overcast | OVC007 | 0 | 0 | 0% | 30.01 | 0.0 | |||||||
| 04 | 21:56 | SW 9 | 10.00 | Overcast | OVC007 | 0 | 0 | 0% | 30.01 | 0.0 | |||||||
| 04 | 20:56 | SW 12 | 10.00 | Overcast | OVC009 | 0 | 0 | 0% | 30.01 | 0.0 | |||||||
| 04 | 19:56 | SW 9 | 10.00 | A Few Clouds | FEW009 | 0 | 0 | 0% | 30.02 | 0.0 | |||||||
| 04 | 18:56 | SW 14 | 10.00 | Mostly Cloudy | BKN009 | 0 | 0 | 0% | 30.03 | 0.0 | |||||||
| 04 | 17:56 | S 12 | 10.00 | Overcast | OVC009 | 0 | 0 | 0% | 30.04 | 0.0 | |||||||
| 04 | 16:56 | SW 10 | 10.00 | Partly Cloudy | SCT009 | 0 | 0 | 0% | 30.05 | 0.0 | |||||||
| 04 | 15:56 | S 13 | 9.00 | Light Snow | BKN007 OVC048 | 0 | 0 | 0% | 30.06 | 0.0 | |||||||
| 04 | 14:56 | SW 12 | 4.00 | Light Snow | FEW008 | 0 | 0 | 0% | 30.07 | 0.0 | |||||||
| 04 | 13:56 | SW 10 | 2.50 | Light Snow | SCT008 OVC026 | 0 | 0 | 0% | 30.08 | 0.0 | |||||||
| 04 | 12:56 | SW 10 | 2.50 | Light Snow | FEW008 SCT025 BKN033 | 0 | 0 | 0% | 30.08 | 0.0 | |||||||
| 04 | 11:56 | SW 10 | 1.50 | Light Snow | SCT020 OVC027 | 0 | 0 | 0% | 30.09 | 0.0 | |||||||
| 04 | 10:56 | SW 10 | 5.00 | Light Snow | FEW008 BKN027 OVC032 | 0 | 0 | 0% | 30.09 | 0.0 | |||||||
| 04 | 09:56 | SW 10 | 2.00 | Light Snow | SCT026 OVC030 | 0 | 0 | 0% | 30.08 | 0.0 | |||||||
| 04 | 07:56 | SW 10 | 3.00 | Light Snow | FEW027 BKN033 | 0 | 0 | 0% | 30.07 | 0.0 | |||||||
| 04 | 06:56 | SW 9 | 3.00 | Light Snow | FEW026 BKN034 OVC046 | 0 | 0 | 0% | 30.07 | 0.0 | |||||||
| 04 | 05:56 | S 7 | 10.00 | Overcast | FEW011 OVC090 | 0 | 0 | 0% | 30.07 | 0.0 | |||||||
| 04 | 04:56 | SW 10 | 10.00 | Overcast | OVC090 | 0 | 0 | 0% | 30.06 | 0.0 | |||||||
| 04 | 03:56 | W 8 | 10.00 | Overcast | SCT044 OVC085 | 0 | 0 | 0% | 30.05 | 0.0 | |||||||
| 04 | 02:56 | W 10 | 8.00 | Light Snow | SCT039 BKN047 | 0 | 0 | 0% | 30.05 | 0.0 | |||||||
| 04 | 01:56 | W 12 | 8.00 | Light Snow | FEW010 BKN025 BKN050 | 0 | 0 | 0% | 30.04 | 0.0 | |||||||
| 04 | 00:56 | W 9 | 9.00 | Light Snow | BKN010 OVC018 | 0 | 0 | 0% | 30.03 | 0.0 | |||||||
| 03 | 23:56 | SW 8 | 9.00 | Light Snow | FEW017 OVC049 | 0 | 0 | 0% | 30.02 | 0.0 | |||||||
| 03 | 22:56 | SW 8 | 9.00 | Light Snow | FEW015 BKN035 OVC047 | 0 | 0 | 0% | 30.01 | 0.0 | |||||||
| 03 | 21:56 | SW 10 | 6.00 | Light Snow | OVC012 | 0 | 0 | 0% | 30 | 0.0 | |||||||
| 03 | 20:56 | SW 9 | 4.00 | Light Snow | OVC025 | 0 | 0 | 0% | 30 | 0.0 | |||||||
| 03 | 19:56 | S 12 | 3.00 | Light Snow | OVC025 | 0 | 0 | 0% | 30 | 0.0 | |||||||
| 03 | 18:56 | S 10 | 9.00 | Light Snow | OVC032 | 0 | 0 | 0% | 29.99 | 0.0 | |||||||
| 03 | 17:56 | SW 10 | 9.00 | Light Snow | OVC034 | 0 | 0 | 0% | 29.99 | 0.0 | |||||||
| 03 | 16:56 | SW 12 | 9.00 | Light Snow | BKN014 OVC033 | 0 | 0 | 0% | 29.99 | 0.0 | |||||||
| 03 | 15:56 | S 12 | 9.00 | Light Snow | OVC014 | 0 | 0 | 0% | 29.99 | 0.0 | |||||||
| 03 | 14:56 | S 12 | 9.00 | Light Snow | OVC009 | 0 | 0 | 0% | 29.99 | 0.0 | |||||||
| 03 | 12:56 | SW 14 | 4.00 | Light Snow Fog/Mist | OVC012 | 23 | 19.9 | 88% | 11 | 29.98 | 1015.0 | ||||||
| 03 | 11:56 | SW 13 | 9.00 | Light Snow | FEW014 OVC023 | 21.9 | 18 | 85% | 11 | 29.96 | 1014.4 | ||||||
| 03 | 10:56 | SW 15 | 9.00 | Light Snow | SCT012 OVC039 | 19 | 16 | 88% | 6 | 29.95 | 1014.1 | ||||||
| 03 | 09:56 | SW 16 | 10.00 | Mostly Cloudy | BKN037 | 18 | 16 | 19 | 16 | 92% | 4 | 29.93 | 1013.3 | ||||
| 03 | 08:56 | SW 16 | 9.00 | Fair | CLR | 16 | 14 | 92% | 2 | 29.91 | 1012.7 | ||||||
| 03 | 07:56 | SW 15 | 7.00 | Light Snow | OVC010 | 17.1 | 15.1 | 92% | 3 | 29.9 | 1012.2 | ||||||
| 03 | 06:56 | SW 17 | 7.00 | Light Snow | BKN010 | 17.1 | 15.1 | 92% | 2 | 29.87 | 1011.4 | ||||||
| 03 | 05:56 | SW 15 | 2.50 | Light Snow Fog/Mist | SCT010 BKN020 OVC030 | 18 | 16 | 92% | 5 | 29.86 | 1011.0 | ||||||
| 03 | 04:56 | SW 17 | 8.00 | Light Snow | OVC011 | 18 | 17.1 | 96% | 4 | 29.84 | 1010.5 | ||||||
| 03 | 03:56 | SW 14 | 6.00 | Fog/Mist | OVC006 | 19 | 17.1 | 23 | 19 | 92% | 6 | 29.82 | 1009.8 | ||||
| 03 | 02:56 | SW 17 | 3.00 | Fog/Mist | OVC006 | 19.9 | 18 | 92% | 6 | 29.81 | 1009.3 | ||||||
| 03 | 01:56 | SW 17 | 2.00 | Light Snow Fog/Mist | OVC008 | 21 | 19 | 92% | 8 | 29.79 | 1008.6 | ||||||
| 03 | 00:56 | SW 17 | 1.00 | Light Snow Fog/Mist | OVC006 | 21 | 19 | 92% | 8 | 29.77 | 1008.1 | ||||||
| 02 | 23:56 | SW 15 | 1.50 | Light Snow Fog/Mist | OVC006 | 21.9 | 19.9 | 92% | 10 | 29.75 | 1007.1 | ||||||
| 02 | 22:56 | SW 14 | 2.00 | Light Snow Fog/Mist | OVC006 | 23 | 21 | 92% | 11 | 29.72 | 1006.4 | ||||||
| 02 | 21:56 | SW 15 | 1.75 | Light Snow Fog/Mist | OVC006 | 23 | 21 | 28.9 | 23 | 92% | 11 | 29.7 | 1005.5 | 0.01 | |||
| 02 | 20:56 | SW 17 | 3.00 | Light Snow Fog/Mist | OVC006 | 24.1 | 21.9 | 91% | 11 | 29.67 | 1004.6 | ||||||
| 02 | 19:56 | SW 14 | 1.00 | Light Snow Fog/Mist | OVC007 | 26.1 | 24.1 | 92% | 15 | 29.65 | 1004.0 | ||||||
| 02 | 18:56 | SW 13 | 1.75 | Light Snow Fog/Mist | OVC007 | 27 | 25 | 92% | 17 | 29.63 | 1003.2 | 0.01 | |||||
| 02 | 17:56 | SW 13 | 1.25 | Light Snow Fog/Mist | OVC007 | 28 | 25 | 88% | 18 | 29.61 | 1002.4 | ||||||
| 02 | 16:56 | SW 13 | 1.25 | Light Snow Fog/Mist | OVC007 | 28 | 26.1 | 92% | 18 | 29.58 | 1001.6 | 0.01 | |||||
| Date | Time (akdt) | Wind (mph) | Vis. (mi.) | Weather | Sky Cond. | Air | Dwpt | Max. | Min. | Relative Humidity | Wind Chill (°F) | Heat Index (°F) | altimeter (in) | sea level (mb) | 1 hr | 3 hr | 6 hr |
| 6 hour | |||||||||||||||||
| Temperature (ºF) | Pressure | Precipitation (in) | |||||||||||||||